ELY5215 LLBG-LGKF

Flight info

Callsign ELY5215
Flight time 2h 22m
Altitude 38000
Route SUVAS L53 ANIDE UL53 MADEX UM601 KFN
Aircraft B738/M-SDE2E3FGHIJ1LORVWXY/LB1

Departure

Time 2026-05-08 14:45
Airport Ben Gurion International Airport (LLBG)

Arrival

Time 2026-05-08 17:07
Airport Kefallinia Airport (LGKF)
Time Latitude Longitude Altitude Speed Heading
2026-05-08 14:12 32.00373 34.87629 118 ft 0 kts 261°
2026-05-08 14:33 32.00374 34.87634 118 ft 3 kts 262°
2026-05-08 14:34 32.00375 34.87665 118 ft 4 kts 277°
2026-05-08 14:34 32.00372 34.87687 116 ft 4 kts 277°
2026-05-08 14:34 32.00370 34.87711 116 ft 4 kts 287°
2026-05-08 14:34 32.00356 34.87730 115 ft 4 kts 342°
2026-05-08 14:35 32.00332 34.87735 114 ft 4 kts 19°
2026-05-08 14:35 32.00310 34.87719 114 ft 4 kts 39°
2026-05-08 14:35 32.00299 34.87709 113 ft 0 kts 33°
2026-05-08 14:37 32.00308 34.87716 114 ft 4 kts 33°
2026-05-08 14:37 32.00348 34.87745 115 ft 9 kts 31°
2026-05-08 14:37 32.00419 34.87795 118 ft 14 kts 31°
2026-05-08 14:38 32.00516 34.87865 117 ft 19 kts 31°
2026-05-08 14:38 32.00623 34.87943 118 ft 18 kts 30°
2026-05-08 14:38 32.00648 34.87960 116 ft 0 kts 31°
2026-05-08 14:39 32.00658 34.87967 116 ft 5 kts 30°
2026-05-08 14:40 32.00709 34.88003 117 ft 11 kts 31°
2026-05-08 14:40 32.00789 34.88061 119 ft 15 kts 31°
2026-05-08 14:40 32.00894 34.88136 119 ft 20 kts 33°
2026-05-08 14:40 32.01021 34.88227 119 ft 23 kts 31°
2026-05-08 14:41 32.01161 34.88326 122 ft 24 kts 30°
2026-05-08 14:41 32.01297 34.88436 122 ft 23 kts 44°
2026-05-08 14:41 32.01400 34.88576 121 ft 22 kts 54°
2026-05-08 14:41 32.01470 34.88735 124 ft 22 kts 69°
2026-05-08 14:42 32.01506 34.88904 124 ft 21 kts 79°
2026-05-08 14:42 32.01531 34.89072 128 ft 20 kts 80°
2026-05-08 14:42 32.01624 34.89151 128 ft 19 kts 351°
2026-05-08 14:42 32.01645 34.89147 127 ft 1 kts 349°
2026-05-08 14:43 32.01656 34.89145 127 ft 3 kts 349°
2026-05-08 14:43 32.01695 34.89136 126 ft 9 kts 349°
2026-05-08 14:43 32.01743 34.89084 128 ft 11 kts 270°
2026-05-08 14:43 32.01742 34.89073 128 ft 0 kts 263°
2026-05-08 14:44 32.01700 34.88794 125 ft 71 kts 259°
2026-05-08 14:44 32.01572 34.87955 115 ft 135 kts 260°
2026-05-08 14:44 32.01369 34.86698 267 ft 173 kts 259°
2026-05-08 14:45 32.01148 34.85339 1065 ft 171 kts 269°
2026-05-08 14:45 32.00906 34.83954 1783 ft 174 kts 262°
2026-05-08 14:45 32.00606 34.82485 2184 ft 200 kts 262°
2026-05-08 14:45 32.00254 34.80785 2448 ft 226 kts 261°
2026-05-08 14:46 31.99861 34.78923 2857 ft 240 kts 258°
2026-05-08 14:46 31.99434 34.76916 3166 ft 263 kts 259°
2026-05-08 14:46 31.99247 34.74772 3865 ft 265 kts 280°
2026-05-08 14:46 31.99784 34.72688 4602 ft 270 kts 289°
2026-05-08 14:47 32.00457 34.70585 5315 ft 275 kts 289°
2026-05-08 14:47 32.01124 34.68492 6126 ft 276 kts 288°
2026-05-08 14:47 32.01798 34.66357 6869 ft 278 kts 287°
2026-05-08 14:47 32.02463 34.64220 7563 ft 280 kts 285°
2026-05-08 14:48 32.02832 34.62036 7905 ft 275 kts 270°
2026-05-08 14:48 32.02901 34.59765 7990 ft 284 kts 270°
2026-05-08 14:48 32.02996 34.57442 8008 ft 283 kts 270°
2026-05-08 14:48 32.03107 34.55137 8002 ft 280 kts 271°
2026-05-08 14:49 32.03224 34.52862 8006 ft 279 kts 271°
2026-05-08 14:49 32.03344 34.50587 8161 ft 280 kts 270°
2026-05-08 14:49 32.03465 34.48271 8753 ft 285 kts 272°
2026-05-08 14:49 32.03588 34.45931 9558 ft 285 kts 273°
2026-05-08 14:50 32.03712 34.43610 10196 ft 291 kts 273°
2026-05-08 14:50 32.03852 34.41150 10425 ft 312 kts 274°
2026-05-08 14:50 32.04005 34.38511 10604 ft 332 kts 274°
2026-05-08 14:50 32.04167 34.35710 10793 ft 349 kts 274°
2026-05-08 14:51 32.04334 34.32803 11171 ft 359 kts 274°
2026-05-08 14:51 32.04499 34.29901 11857 ft 358 kts 274°
2026-05-08 14:51 32.04665 34.26960 12472 ft 362 kts 274°
2026-05-08 14:51 32.04876 34.23968 13072 ft 365 kts 279°
2026-05-08 14:52 32.05705 34.21206 13824 ft 361 kts 299°
2026-05-08 14:52 32.08339 34.16054 14868 ft 372 kts 302°
2026-05-08 14:52 32.09707 34.13429 15470 ft 374 kts 302°
2026-05-08 14:53 32.11056 34.10816 16073 ft 377 kts 302°
2026-05-08 14:53 32.12424 34.08140 16574 ft 382 kts 302°
2026-05-08 14:53 32.13798 34.05434 17183 ft 384 kts 302°
2026-05-08 14:53 32.15156 34.02753 17758 ft 387 kts 302°
2026-05-08 14:54 32.16544 34.00011 18300 ft 391 kts 302°
2026-05-08 14:54 32.17878 33.97194 18756 ft 395 kts 298°
2026-05-08 14:54 32.19115 33.94277 19296 ft 395 kts 297°
2026-05-08 14:54 32.20288 33.91389 19862 ft 395 kts 297°
2026-05-08 14:55 32.21475 33.88435 20397 ft 397 kts 297°
2026-05-08 14:55 32.22670 33.85472 20888 ft 399 kts 297°
2026-05-08 14:55 32.23857 33.82548 21368 ft 400 kts 297°
2026-05-08 14:55 32.25071 33.79576 21856 ft 402 kts 297°
2026-05-08 14:56 32.26290 33.76600 22327 ft 403 kts 297°
2026-05-08 14:56 32.27519 33.73608 22782 ft 405 kts 298°
2026-05-08 14:56 32.28759 33.70593 23226 ft 407 kts 298°
2026-05-08 14:56 32.29992 33.67593 23655 ft 409 kts 298°
2026-05-08 14:57 32.31238 33.64561 23990 ft 410 kts 298°
2026-05-08 14:57 32.32475 33.61547 24339 ft 412 kts 298°
2026-05-08 14:57 32.33719 33.58513 24701 ft 413 kts 298°
2026-05-08 14:57 32.34969 33.55462 25076 ft 413 kts 298°
2026-05-08 14:58 32.36230 33.52383 25447 ft 414 kts 298°
2026-05-08 14:58 32.37472 33.49346 25790 ft 415 kts 298°
2026-05-08 14:58 32.38737 33.46251 26130 ft 417 kts 298°
2026-05-08 14:58 32.40003 33.43151 26451 ft 418 kts 298°
2026-05-08 14:59 32.41271 33.40042 26782 ft 419 kts 298°
2026-05-08 14:59 32.43798 33.33840 27423 ft 421 kts 298°
2026-05-08 14:59 32.45072 33.30709 27729 ft 423 kts 298°
2026-05-08 15:00 32.46347 33.27571 28024 ft 424 kts 298°
2026-05-08 15:00 32.47631 33.24414 28314 ft 425 kts 298°
2026-05-08 15:00 32.48897 33.21293 28606 ft 426 kts 298°
2026-05-08 15:00 32.50183 33.18118 28925 ft 426 kts 298°
2026-05-08 15:01 32.51469 33.14940 29360 ft 424 kts 298°
2026-05-08 15:01 32.52728 33.11828 29812 ft 422 kts 298°
2026-05-08 15:01 32.53992 33.08698 30257 ft 419 kts 298°
2026-05-08 15:01 32.55250 33.05583 30648 ft 417 kts 298°
2026-05-08 15:02 32.56498 33.02490 31021 ft 415 kts 298°
2026-05-08 15:02 32.57732 32.99432 31389 ft 413 kts 298°
2026-05-08 15:02 32.58956 32.96394 31751 ft 411 kts 298°
2026-05-08 15:02 32.60179 32.93355 32126 ft 409 kts 298°
2026-05-08 15:03 32.61388 32.90347 32494 ft 407 kts 298°
2026-05-08 15:03 32.62580 32.87382 32824 ft 406 kts 298°
2026-05-08 15:03 32.63768 32.84424 33151 ft 404 kts 298°
2026-05-08 15:03 32.64970 32.81427 33499 ft 402 kts 298°
2026-05-08 15:04 32.66170 32.78433 33881 ft 400 kts 298°
2026-05-08 15:04 32.67359 32.75463 34194 ft 399 kts 298°
2026-05-08 15:04 32.68537 32.72520 34448 ft 398 kts 298°
2026-05-08 15:04 32.69691 32.69634 34671 ft 398 kts 298°
2026-05-08 15:05 32.70878 32.66662 34926 ft 397 kts 298°
2026-05-08 15:05 32.72059 32.63702 35194 ft 396 kts 298°
2026-05-08 15:05 32.73240 32.60741 35437 ft 395 kts 298°
2026-05-08 15:05 32.74414 32.57796 35670 ft 394 kts 297°
2026-05-08 15:06 32.75569 32.54893 35909 ft 393 kts 297°
2026-05-08 15:06 32.76741 32.51946 36153 ft 392 kts 297°
2026-05-08 15:06 32.77906 32.49015 36379 ft 392 kts 297°
2026-05-08 15:06 32.79073 32.46075 36597 ft 391 kts 297°
2026-05-08 15:07 32.80213 32.43203 36821 ft 391 kts 297°
2026-05-08 15:07 32.81386 32.40286 37028 ft 390 kts 299°
2026-05-08 15:07 32.82780 32.37553 37227 ft 388 kts 306°
2026-05-08 15:07 32.84324 32.34921 37438 ft 387 kts 305°
2026-05-08 15:08 32.85832 32.32352 37592 ft 387 kts 305°
2026-05-08 15:08 32.86859 32.30597 37684 ft 388 kts 305°
2026-05-08 15:08 32.88923 32.27057 37957 ft 387 kts 305°
2026-05-08 15:08 32.90432 32.24461 38099 ft 388 kts 305°
2026-05-08 15:09 32.93513 32.19139 38089 ft 389 kts 305°
2026-05-08 15:09 32.96567 32.13850 38096 ft 386 kts 305°
2026-05-08 15:10 32.99570 32.08642 38098 ft 383 kts 305°
2026-05-08 15:10 33.02585 32.03403 38112 ft 381 kts 305°
2026-05-08 15:11 33.05573 31.98204 38096 ft 381 kts 305°
2026-05-08 15:11 33.08578 31.92969 38106 ft 383 kts 304°
2026-05-08 15:12 33.11587 31.87719 38106 ft 385 kts 304°
2026-05-08 15:12 33.14600 31.82455 38105 ft 387 kts 304°
2026-05-08 15:13 33.17611 31.77188 38094 ft 389 kts 304°
2026-05-08 15:13 33.20665 31.71836 38110 ft 391 kts 304°
2026-05-08 15:14 33.23730 31.66458 38108 ft 393 kts 304°
2026-05-08 15:14 33.26802 31.61061 38109 ft 394 kts 304°
2026-05-08 15:15 33.29877 31.55648 38106 ft 395 kts 304°
2026-05-08 15:15 33.32940 31.50250 38100 ft 395 kts 304°
2026-05-08 15:16 33.36026 31.44803 38109 ft 394 kts 304°
2026-05-08 15:16 33.39094 31.39380 38110 ft 394 kts 304°
2026-05-08 15:17 33.42145 31.33980 38112 ft 393 kts 304°
2026-05-08 15:17 33.45202 31.28561 38113 ft 392 kts 304°
2026-05-08 15:18 33.48248 31.23153 38125 ft 391 kts 304°
2026-05-08 15:18 33.51272 31.17775 38114 ft 390 kts 304°
2026-05-08 15:19 33.54306 31.12373 38114 ft 389 kts 304°
2026-05-08 15:19 33.57328 31.06985 38113 ft 388 kts 304°
2026-05-08 15:20 33.60319 31.01642 38114 ft 388 kts 304°
2026-05-08 15:20 33.63323 30.96270 38120 ft 387 kts 304°
2026-05-08 15:21 33.66323 30.90897 38120 ft 387 kts 303°
2026-05-08 15:21 33.69315 30.85530 38116 ft 387 kts 303°
2026-05-08 15:22 33.72309 30.80151 38114 ft 387 kts 303°
2026-05-08 15:22 33.75277 30.74811 38115 ft 387 kts 303°
2026-05-08 15:23 33.78265 30.69427 38117 ft 387 kts 303°
2026-05-08 15:23 33.80748 30.64947 38118 ft 387 kts 303°
2026-05-08 15:24 33.83739 30.59544 38117 ft 388 kts 303°
2026-05-08 15:24 33.86725 30.54141 38117 ft 388 kts 303°
2026-05-08 15:25 33.89717 30.48719 38123 ft 388 kts 303°
2026-05-08 15:25 33.92704 30.43299 38138 ft 389 kts 303°
2026-05-08 15:26 33.95698 30.37857 38133 ft 389 kts 303°
2026-05-08 15:26 33.98689 30.32412 38118 ft 389 kts 303°
2026-05-08 15:27 34.01673 30.26972 38121 ft 388 kts 303°
2026-05-08 15:27 34.04634 30.21567 38122 ft 387 kts 303°
2026-05-08 15:28 34.07594 30.16154 38119 ft 386 kts 303°
2026-05-08 15:28 34.10555 30.10731 38121 ft 385 kts 302°
2026-05-08 15:29 34.13504 30.05323 38124 ft 384 kts 302°
2026-05-08 15:29 34.16427 29.99975 38123 ft 383 kts 304°
2026-05-08 15:30 34.19630 29.94823 38126 ft 382 kts 306°
2026-05-08 15:30 34.22876 29.89785 38123 ft 381 kts 306°
2026-05-08 15:31 34.26125 29.84720 38123 ft 381 kts 306°
2026-05-08 15:31 34.29357 29.79648 38118 ft 380 kts 306°
2026-05-08 15:32 34.32569 29.74587 38126 ft 380 kts 306°
2026-05-08 15:32 34.35786 29.69508 38135 ft 381 kts 305°
2026-05-08 15:33 34.39013 29.64406 38120 ft 381 kts 305°
2026-05-08 15:33 34.42216 29.59333 38121 ft 382 kts 305°
2026-05-08 15:34 34.45438 29.54223 38124 ft 382 kts 305°
2026-05-08 15:34 34.48672 29.49089 38124 ft 383 kts 304°
2026-05-08 15:35 34.51891 29.43969 38124 ft 384 kts 304°
2026-05-08 15:35 34.55119 29.38829 38119 ft 384 kts 304°
2026-05-08 15:36 34.58349 29.33678 38125 ft 385 kts 304°
2026-05-08 15:36 34.61589 29.28503 38122 ft 385 kts 304°
2026-05-08 15:37 34.64816 29.23341 38110 ft 386 kts 304°
2026-05-08 15:37 34.68060 29.18146 38130 ft 386 kts 304°
2026-05-08 15:38 34.71297 29.12953 38128 ft 387 kts 304°
2026-05-08 15:38 34.74557 29.07714 38120 ft 387 kts 304°
2026-05-08 15:39 34.77797 29.02503 38118 ft 388 kts 304°
2026-05-08 15:39 34.81055 28.97253 38115 ft 388 kts 304°
2026-05-08 15:40 34.84271 28.92063 38115 ft 388 kts 304°
2026-05-08 15:40 34.87479 28.86878 38125 ft 389 kts 304°
2026-05-08 15:41 34.90735 28.81609 38123 ft 389 kts 304°
2026-05-08 15:41 34.93973 28.76359 38124 ft 389 kts 304°
2026-05-08 15:42 34.97212 28.71101 38123 ft 389 kts 304°
2026-05-08 15:42 35.00429 28.65873 38122 ft 390 kts 304°
2026-05-08 15:43 35.03433 28.60448 38128 ft 388 kts 299°
2026-05-08 15:43 35.06214 28.54804 38124 ft 388 kts 298°
2026-05-08 15:44 35.09012 28.49143 38123 ft 388 kts 299°
2026-05-08 15:44 35.11820 28.43492 38126 ft 388 kts 299°
2026-05-08 15:45 35.14604 28.37884 38123 ft 389 kts 298°
2026-05-08 15:45 35.17405 28.32211 38121 ft 389 kts 298°
2026-05-08 15:46 35.20185 28.26566 38121 ft 389 kts 298°
2026-05-08 15:46 35.22981 28.20880 38121 ft 389 kts 298°
2026-05-08 15:47 35.25771 28.15200 38119 ft 389 kts 298°
2026-05-08 15:47 35.28545 28.09541 38115 ft 389 kts 298°
2026-05-08 15:48 35.32724 28.01000 38112 ft 389 kts 298°
2026-05-08 15:49 35.35506 27.95301 38116 ft 389 kts 298°
2026-05-08 15:49 35.38265 27.89643 38115 ft 388 kts 298°
2026-05-08 15:50 35.41031 27.83958 38115 ft 388 kts 298°
2026-05-08 15:50 35.43784 27.78292 38114 ft 387 kts 298°
2026-05-08 15:51 35.46540 27.72609 38116 ft 387 kts 298°
2026-05-08 15:51 35.49252 27.67009 38116 ft 386 kts 298°
2026-05-08 15:52 35.51998 27.61330 38121 ft 386 kts 298°
2026-05-08 15:52 35.54738 27.55652 38113 ft 386 kts 298°
2026-05-08 15:53 35.57473 27.49976 38118 ft 386 kts 298°
2026-05-08 15:53 35.60190 27.44328 38135 ft 386 kts 297°
2026-05-08 15:54 35.62926 27.38631 38125 ft 386 kts 297°
2026-05-08 15:54 35.65631 27.32990 38111 ft 385 kts 297°
2026-05-08 15:55 35.68347 27.27316 38109 ft 384 kts 297°
2026-05-08 15:55 35.72399 27.18832 38111 ft 382 kts 297°
2026-05-08 15:56 35.75090 27.13189 38109 ft 382 kts 297°
2026-05-08 15:56 35.77757 27.07582 38115 ft 380 kts 297°
2026-05-08 15:57 35.80429 27.01958 38110 ft 379 kts 297°
2026-05-08 15:57 35.83003 26.96339 38110 ft 376 kts 293°
2026-05-08 15:58 35.85238 26.90506 38116 ft 375 kts 292°
2026-05-08 15:58 35.87497 26.84701 38121 ft 375 kts 292°
2026-05-08 15:59 35.89775 26.78917 38109 ft 374 kts 292°
2026-05-08 15:59 35.92329 26.73447 38114 ft 377 kts 300°
2026-05-08 16:00 35.95061 26.68577 38110 ft 377 kts 300°
2026-05-08 16:00 35.97992 26.63337 38114 ft 377 kts 300°
2026-05-08 16:01 36.00947 26.58018 38110 ft 377 kts 300°
2026-05-08 16:01 36.03915 26.52656 38115 ft 377 kts 299°
2026-05-08 16:02 36.06884 26.47279 38118 ft 379 kts 299°
2026-05-08 16:02 36.09841 26.41914 38116 ft 380 kts 299°
2026-05-08 16:03 36.12820 26.36502 38114 ft 382 kts 299°
2026-05-08 16:03 36.15821 26.31041 38113 ft 384 kts 299°
2026-05-08 16:04 36.18816 26.25584 38112 ft 385 kts 299°
2026-05-08 16:04 36.21814 26.20110 38104 ft 386 kts 299°
2026-05-08 16:05 36.24836 26.14586 38104 ft 387 kts 299°
2026-05-08 16:05 36.27834 26.09097 38103 ft 387 kts 299°
2026-05-08 16:06 36.30844 26.03575 38104 ft 387 kts 299°
2026-05-08 16:06 36.33851 25.98051 38103 ft 387 kts 299°
2026-05-08 16:07 36.36854 25.92526 38097 ft 387 kts 299°
2026-05-08 16:07 36.39850 25.87010 38097 ft 386 kts 299°
2026-05-08 16:08 36.42843 25.81494 38092 ft 386 kts 299°
2026-05-08 16:08 36.45832 25.75976 38094 ft 387 kts 299°
2026-05-08 16:09 36.48312 25.71388 38088 ft 388 kts 299°
2026-05-08 16:09 36.51826 25.64879 38085 ft 389 kts 299°
2026-05-08 16:10 36.54345 25.60205 38084 ft 390 kts 300°
2026-05-08 16:10 36.57372 25.54579 38101 ft 391 kts 300°
2026-05-08 16:11 36.60383 25.48976 38092 ft 391 kts 300°
2026-05-08 16:11 36.63373 25.43372 38090 ft 390 kts 297°
2026-05-08 16:12 36.65496 25.37233 38086 ft 385 kts 284°
2026-05-08 16:12 36.66463 25.30688 38088 ft 384 kts 277°
2026-05-08 16:13 36.67243 25.24153 38091 ft 383 kts 278°
2026-05-08 16:13 36.68046 25.17618 38087 ft 382 kts 277°
2026-05-08 16:14 36.68760 25.11069 38082 ft 381 kts 277°
2026-05-08 16:14 36.69443 25.04511 38082 ft 381 kts 277°
2026-05-08 16:15 36.70127 24.98040 38080 ft 380 kts 277°
2026-05-08 16:15 36.70805 24.91530 38086 ft 380 kts 276°
2026-05-08 16:16 36.71471 24.84997 38088 ft 379 kts 276°
2026-05-08 16:16 36.72130 24.78504 38087 ft 379 kts 276°
2026-05-08 16:17 36.72792 24.71963 38087 ft 380 kts 276°
2026-05-08 16:17 36.73447 24.65456 38089 ft 380 kts 276°
2026-05-08 16:18 36.74105 24.58895 38084 ft 380 kts 276°
2026-05-08 16:18 36.74840 24.52388 38078 ft 381 kts 281°
2026-05-08 16:19 36.76558 24.46109 38091 ft 383 kts 289°
2026-05-08 16:19 36.78514 24.39925 38080 ft 384 kts 288°
2026-05-08 16:20 36.80463 24.33694 38080 ft 385 kts 288°
2026-05-08 16:20 36.82393 24.27474 38081 ft 385 kts 288°
2026-05-08 16:21 36.84321 24.21240 38081 ft 386 kts 288°
2026-05-08 16:21 36.86261 24.14951 38080 ft 387 kts 288°
2026-05-08 16:22 36.88185 24.08698 38076 ft 387 kts 288°
2026-05-08 16:22 36.90115 24.02417 38076 ft 388 kts 288°
2026-05-08 16:23 36.92038 23.96152 38072 ft 388 kts 288°
2026-05-08 16:23 36.93979 23.89839 38073 ft 388 kts 288°
2026-05-08 16:24 36.95911 23.83545 38069 ft 388 kts 288°
2026-05-08 16:24 36.97834 23.77263 38070 ft 388 kts 288°
2026-05-08 16:25 36.99761 23.70954 38064 ft 388 kts 288°
2026-05-08 16:25 37.01686 23.64634 38065 ft 388 kts 288°
2026-05-08 16:26 37.03599 23.58341 38063 ft 388 kts 288°
2026-05-08 16:26 37.05496 23.52087 38062 ft 387 kts 288°
2026-05-08 16:27 37.07413 23.45751 38061 ft 387 kts 288°
2026-05-08 16:27 37.09310 23.39468 38064 ft 387 kts 288°
2026-05-08 16:28 37.11210 23.33164 38052 ft 387 kts 288°
2026-05-08 16:28 37.13102 23.26866 38052 ft 387 kts 287°
2026-05-08 16:29 37.14991 23.20537 38052 ft 387 kts 287°
2026-05-08 16:29 37.16878 23.14201 38052 ft 387 kts 287°
2026-05-08 16:30 37.18749 23.07904 38034 ft 387 kts 288°
2026-05-08 16:30 37.20634 23.01549 38052 ft 389 kts 288°
2026-05-08 16:31 37.22514 22.95195 38059 ft 390 kts 288°
2026-05-08 16:31 37.24403 22.88797 38059 ft 392 kts 288°
2026-05-08 16:32 37.26303 22.82345 38059 ft 394 kts 287°
2026-05-08 16:32 37.28199 22.75891 38053 ft 396 kts 288°
2026-05-08 16:33 37.30098 22.69415 38074 ft 397 kts 288°
2026-05-08 16:33 37.32010 22.62876 38074 ft 398 kts 288°
2026-05-08 16:34 37.34334 22.56583 38085 ft 403 kts 300°
2026-05-08 16:34 37.36035 22.53740 37892 ft 410 kts 307°
2026-05-08 16:34 37.37974 22.51086 37635 ft 408 kts 308°
2026-05-08 16:35 37.39889 22.48509 37370 ft 403 kts 308°
2026-05-08 16:35 37.41800 22.45939 37094 ft 400 kts 308°
2026-05-08 16:35 37.43701 22.43371 36603 ft 399 kts 308°
2026-05-08 16:35 37.45576 22.40825 36277 ft 393 kts 308°
2026-05-08 16:36 37.47424 22.38304 35812 ft 390 kts 308°
2026-05-08 16:36 37.49238 22.35821 35402 ft 386 kts 308°
2026-05-08 16:36 37.51050 22.33335 34997 ft 382 kts 308°
2026-05-08 16:36 37.52843 22.30871 34605 ft 379 kts 308°
2026-05-08 16:37 37.54601 22.28451 34205 ft 376 kts 307°
2026-05-08 16:37 37.56365 22.26022 33776 ft 373 kts 307°
2026-05-08 16:37 37.58097 22.23634 33349 ft 370 kts 307°
2026-05-08 16:37 37.59837 22.21236 32953 ft 366 kts 307°
2026-05-08 16:38 37.61529 22.18902 32571 ft 362 kts 307°
2026-05-08 16:38 37.63222 22.16563 32186 ft 359 kts 307°
2026-05-08 16:38 37.64904 22.14239 31819 ft 356 kts 307°
2026-05-08 16:38 37.66573 22.11930 31463 ft 353 kts 307°
2026-05-08 16:39 37.68201 22.09677 31109 ft 350 kts 306°
2026-05-08 16:39 37.69827 22.07426 30755 ft 346 kts 306°
2026-05-08 16:39 37.71452 22.05175 30372 ft 343 kts 306°
2026-05-08 16:39 37.73039 22.02974 29976 ft 341 kts 306°
2026-05-08 16:40 37.74634 22.00761 29590 ft 336 kts 306°
2026-05-08 16:40 37.76189 21.98602 29222 ft 333 kts 306°
2026-05-08 16:40 37.77741 21.96445 28848 ft 329 kts 306°
2026-05-08 16:40 37.79278 21.94308 28459 ft 327 kts 306°
2026-05-08 16:41 37.80805 21.92180 28117 ft 323 kts 306°
2026-05-08 16:41 37.82297 21.90102 27754 ft 322 kts 306°
2026-05-08 16:41 37.83800 21.88007 27396 ft 320 kts 306°
2026-05-08 16:42 37.86786 21.83841 26692 ft 318 kts 306°
2026-05-08 16:42 37.88244 21.81802 26341 ft 318 kts 306°
2026-05-08 16:42 37.89747 21.79702 25991 ft 315 kts 306°
2026-05-08 16:42 37.91200 21.77673 25636 ft 315 kts 306°
2026-05-08 16:43 37.92668 21.75620 25315 ft 313 kts 306°
2026-05-08 16:43 37.94133 21.73568 24943 ft 314 kts 306°
2026-05-08 16:43 37.95589 21.71529 24606 ft 312 kts 306°
2026-05-08 16:43 37.97046 21.69487 24259 ft 311 kts 306°
2026-05-08 16:44 37.98496 21.67454 23950 ft 310 kts 305°
2026-05-08 16:44 37.99941 21.65425 23596 ft 310 kts 306°
2026-05-08 16:44 38.01387 21.63395 23192 ft 309 kts 306°
2026-05-08 16:44 38.02810 21.61395 22829 ft 308 kts 306°
2026-05-08 16:45 38.04243 21.59381 22479 ft 305 kts 305°
2026-05-08 16:45 38.05664 21.57379 22135 ft 312 kts 305°
2026-05-08 16:45 38.07134 21.55305 21766 ft 315 kts 306°
2026-05-08 16:45 38.08602 21.53239 21403 ft 311 kts 306°
2026-05-08 16:46 38.10042 21.51213 21053 ft 307 kts 306°
2026-05-08 16:46 38.11446 21.49235 20732 ft 304 kts 305°
2026-05-08 16:46 38.12856 21.47247 20393 ft 301 kts 305°
2026-05-08 16:46 38.14248 21.45272 20067 ft 297 kts 303°
2026-05-08 16:47 38.15233 21.43057 19758 ft 284 kts 285°
2026-05-08 16:47 38.15712 21.40655 19420 ft 279 kts 275°
2026-05-08 16:47 38.15757 21.38198 19107 ft 276 kts 268°
2026-05-08 16:47 38.15658 21.35790 18793 ft 275 kts 267°
2026-05-08 16:48 38.15530 21.33403 18482 ft 273 kts 266°
2026-05-08 16:48 38.15397 21.31009 18148 ft 271 kts 266°
2026-05-08 16:48 38.15269 21.28627 17805 ft 269 kts 266°
2026-05-08 16:48 38.15147 21.26292 17504 ft 265 kts 266°
2026-05-08 16:49 38.15029 21.23962 17209 ft 262 kts 266°
2026-05-08 16:49 38.14913 21.21653 16903 ft 260 kts 266°
2026-05-08 16:49 38.14801 21.19392 16596 ft 258 kts 266°
2026-05-08 16:49 38.14691 21.17143 16307 ft 256 kts 266°
2026-05-08 16:50 38.14579 21.14861 16009 ft 258 kts 266°
2026-05-08 16:50 38.14468 21.12582 15709 ft 263 kts 266°
2026-05-08 16:50 38.14352 21.10226 15408 ft 270 kts 266°
2026-05-08 16:50 38.14235 21.07827 15089 ft 272 kts 266°
2026-05-08 16:51 38.14117 21.05431 14767 ft 270 kts 266°
2026-05-08 16:51 38.14001 21.03061 14453 ft 268 kts 266°
2026-05-08 16:51 38.13884 21.00704 14131 ft 266 kts 266°
2026-05-08 16:51 38.13769 20.98389 13812 ft 265 kts 266°
2026-05-08 16:52 38.13654 20.96063 13457 ft 263 kts 266°
2026-05-08 16:52 38.13539 20.93758 13139 ft 260 kts 266°
2026-05-08 16:52 38.13425 20.91479 12842 ft 257 kts 266°
2026-05-08 16:52 38.13311 20.89231 12535 ft 255 kts 266°
2026-05-08 16:53 38.13088 20.84810 11921 ft 251 kts 265°
2026-05-08 16:53 38.12976 20.82617 11627 ft 249 kts 265°
2026-05-08 16:53 38.12865 20.80424 11335 ft 247 kts 265°
2026-05-08 16:54 38.12755 20.78274 11063 ft 246 kts 265°
2026-05-08 16:54 38.12643 20.76097 10763 ft 246 kts 265°
2026-05-08 16:54 38.12531 20.73926 10477 ft 246 kts 264°
2026-05-08 16:54 38.12456 20.72485 10361 ft 244 kts 265°
2026-05-08 16:55 38.12338 20.69677 10144 ft 234 kts 263°
2026-05-08 16:55 38.12208 20.67688 10107 ft 217 kts 265°
2026-05-08 16:55 38.12139 20.66419 9948 ft 219 kts 264°
2026-05-08 16:55 38.12037 20.64476 9724 ft 221 kts 264°
2026-05-08 16:56 38.11932 20.62479 9450 ft 233 kts 264°
2026-05-08 16:56 38.11823 20.60408 9170 ft 239 kts 264°
2026-05-08 16:56 38.11714 20.58325 8875 ft 233 kts 264°
2026-05-08 16:56 38.11606 20.56278 8602 ft 231 kts 264°
2026-05-08 16:57 38.11497 20.54242 8258 ft 232 kts 264°
2026-05-08 16:57 38.11387 20.52192 7943 ft 234 kts 264°
2026-05-08 16:57 38.11400 20.50148 7639 ft 237 kts 279°
2026-05-08 16:57 38.11922 20.48158 7387 ft 237 kts 285°
2026-05-08 16:58 38.12476 20.46183 7132 ft 236 kts 285°
2026-05-08 16:58 38.13022 20.44223 6880 ft 235 kts 285°
2026-05-08 16:58 38.13566 20.42264 6655 ft 232 kts 285°
2026-05-08 16:58 38.14100 20.40341 6419 ft 230 kts 285°
2026-05-08 16:59 38.14629 20.38428 6170 ft 229 kts 285°
2026-05-08 16:59 38.15154 20.36530 5907 ft 228 kts 285°
2026-05-08 16:59 38.15680 20.34623 5650 ft 230 kts 285°
2026-05-08 16:59 38.16220 20.32659 5409 ft 239 kts 285°
2026-05-08 17:00 38.16770 20.30655 5152 ft 247 kts 285°
2026-05-08 17:00 38.17591 20.28687 4844 ft 261 kts 309°
2026-05-08 17:00 38.19138 20.27448 4575 ft 269 kts 340°
2026-05-08 17:00 38.21006 20.27378 4412 ft 272 kts 14°
2026-05-08 17:01 38.22654 20.28484 4308 ft 265 kts 37°
2026-05-08 17:01 38.24072 20.29899 4190 ft 253 kts 37°
2026-05-08 17:01 38.25391 20.31226 4064 ft 237 kts 38°
2026-05-08 17:01 38.26670 20.32508 3970 ft 234 kts 39°
2026-05-08 17:02 38.27660 20.34122 3767 ft 231 kts 77°
2026-05-08 17:02 38.27618 20.36004 3570 ft 208 kts 121°
2026-05-08 17:02 38.26780 20.37372 3395 ft 189 kts 147°
2026-05-08 17:02 38.25758 20.38384 3211 ft 183 kts 152°
2026-05-08 17:03 38.24726 20.39282 2971 ft 175 kts 155°
2026-05-08 17:03 38.23711 20.40114 2803 ft 172 kts 155°
2026-05-08 17:03 38.22717 20.40929 2618 ft 173 kts 155°
2026-05-08 17:03 38.21704 20.41767 2352 ft 172 kts 155°
2026-05-08 17:04 38.20715 20.42587 2096 ft 165 kts 154°
2026-05-08 17:04 38.19786 20.43361 1851 ft 155 kts 154°
2026-05-08 17:04 38.18904 20.44095 1632 ft 147 kts 153°
2026-05-08 17:04 38.18061 20.44797 1424 ft 144 kts 152°
2026-05-08 17:05 38.17239 20.45483 1265 ft 137 kts 152°
2026-05-08 17:05 38.16457 20.46135 1055 ft 132 kts 152°
2026-05-08 17:05 38.15706 20.46835 796 ft 140 kts 142°
2026-05-08 17:05 38.14940 20.47610 580 ft 139 kts 148°
2026-05-08 17:06 38.14140 20.48268 410 ft 136 kts 148°
2026-05-08 17:06 38.13349 20.48934 214 ft 141 kts 149°
2026-05-08 17:06 38.12530 20.49605 50 ft 132 kts 146°
2026-05-08 17:06 38.11941 20.50102 56 ft 63 kts 147°
2026-05-08 17:07 38.11772 20.50243 59 ft 22 kts 146°
2026-05-08 17:07 38.11744 20.50324 57 ft 7 kts 52°
2026-05-08 17:07 38.11789 20.50356 58 ft 7 kts 27°
2026-05-08 17:07 38.11827 20.50385 54 ft 5 kts 47°
2026-05-08 17:08 38.11851 20.50421 55 ft 5 kts 54°
2026-05-08 17:08 38.11861 20.50438 56 ft 0 kts 55°
2026-05-08 17:08 38.11861 20.50440 56 ft 0 kts 55°